Weather History for Plymouth, MA

Change the Weather History Date:

Thursday, June 20, 2013

  Actual Average Record
Temperature  
Mean Temperature 64 °F -  
Max Temperature 77 °F 77 °F 97 °F (1953)
Min Temperature 53 °F 57 °F 43 °F (2005)
Degree Days  
Heating Degree Days 1    
Growing Degree Days 14 (Base 50)    
Moisture  
Dew Point 53 °F    
Average Humidity 67    
Maximum Humidity 93    
Minimum Humidity 43    
Precipitation  
Precipitation 0.00 in - - ()
Sea Level Pressure  
Sea Level Pressure 30.24 in    
Wind  
Wind Speed 3 mph (SSW)    
Max Wind Speed 13 mph    
Max Gust Speed 20 mph    
Visibility 10 miles    
Events      
Averages and records for this station are not official NWS values.
T = Trace of Precipitation, MM = Missing Value Source: NWS Daily Summary

Daily Weather History Graph

Daily Weather History Graph

Search for Another Location

Airport:

Trip Planner

Search our weather history database for the weather conditions in past years. The results will help you decide how hot, cold, wet, or windy it might be!

Date:

Astronomy

Jun. 20, 2013 Rise Set
Actual Time 5:07 AM EDT 8:21 PM EDT
Civil Twilight 4:33 AM EDT 8:55 PM EDT
Nautical Twilight 3:48 AM EDT 9:40 PM EDT
Astronomical Twilight 2:55 AM EDT 10:33 PM EDT
Moon 5:18 PM EDT (6/20) 2:33 AM EDT (6/20)
Length of Visible Light 16h 22m
Length of Day
15h 13m
Waxing Gibbous, 89% of the Moon is Illuminated
Jun 20
Waxing Gibbous
Jun 23
Full
Jun 30
Last Quarter
Jul 8
New
Jul 15
First Quarter

Hourly Weather History & Observations

Time (EDT) Temp. Dew Point Humidity Pressure Visibility Wind Dir Wind Speed Gust Speed Precip Events Conditions
12:52 AM 55.0 °F 51.1 °F 86% 30.17 in 10.0 mi Calm Calm - N/A   Clear
1:52 AM 55.0 °F 51.1 °F 86% 30.19 in 10.0 mi SSW 3.5 mph - N/A   Clear
2:52 AM 53.1 °F 48.9 °F 86% 30.18 in 10.0 mi Calm Calm - N/A   Clear
3:52 AM 53.1 °F 48.9 °F 86% 30.19 in 10.0 mi Calm Calm - N/A   Clear
4:52 AM 53.1 °F 48.9 °F 86% 30.21 in 10.0 mi Calm Calm - N/A   Clear
5:52 AM 53.1 °F 51.1 °F 93% 30.22 in 10.0 mi Calm Calm - N/A   Clear
6:52 AM 60.1 °F 54.0 °F 80% 30.24 in 10.0 mi SW 4.6 mph - N/A   Clear
7:52 AM 63.0 °F 55.9 °F 78% 30.26 in 10.0 mi SW 5.8 mph - N/A   Clear
8:52 AM 66.9 °F 55.9 °F 68% 30.26 in 10.0 mi SSW 3.5 mph - N/A   Clear
9:52 AM 71.1 °F 55.9 °F 59% 30.26 in 10.0 mi Calm Calm - N/A   Clear
10:52 AM 73.0 °F 54.0 °F 51% 30.25 in 10.0 mi SSW 4.6 mph - N/A   Clear
11:52 AM 73.0 °F 53.1 °F 49% 30.25 in 10.0 mi West 5.8 mph - N/A   Overcast
12:52 PM 75.0 °F 55.0 °F 50% 30.25 in 10.0 mi Variable 6.9 mph - N/A   Mostly Cloudy
1:52 PM 73.9 °F 53.1 °F 48% 30.25 in 10.0 mi Variable 3.5 mph - N/A   Mostly Cloudy
2:52 PM 75.0 °F 57.9 °F 55% 30.24 in 10.0 mi SSE 10.4 mph - N/A   Scattered Clouds
3:52 PM 73.0 °F 55.9 °F 55% 30.23 in 10.0 mi SSE 8.1 mph - N/A   Scattered Clouds
4:52 PM 73.9 °F 55.0 °F 52% 30.22 in 10.0 mi SSE 9.2 mph - N/A   Scattered Clouds
5:52 PM 73.9 °F 50.0 °F 43% 30.22 in 10.0 mi SW 12.7 mph 19.6 mph N/A   Clear
6:52 PM 72.0 °F 53.1 °F 51% 30.24 in 10.0 mi SSW 9.2 mph - N/A   Clear
7:52 PM 68.0 °F 51.1 °F 55% 30.26 in 10.0 mi SSW 8.1 mph - N/A   Clear
8:52 PM 64.0 °F 51.1 °F 63% 30.27 in 10.0 mi Variable 4.6 mph - N/A   Clear
9:52 PM 62.1 °F 52.0 °F 70% 30.29 in 10.0 mi SSW 6.9 mph - N/A   Clear
10:52 PM 61.0 °F 53.1 °F 75% 30.28 in 10.0 mi SSW 5.8 mph - N/A   Clear
11:52 PM 60.1 °F 55.0 °F 83% 30.28 in 10.0 mi SSW 5.8 mph - N/A   Clear